[[{"header":{"parameterUnit":"m.s-1","parameterCategory":1,"la1":30.2991,"la2":30.254,"lo1":-89.0895,"lo2":-89.0444,"dy":0.0017,"dx":0.0017,"nx":28,"ny":28,"refTime":"2025-12-10T03:00:00:Z","depth":0,"parameterNumber":2,"parameterNumberName":"U-component_of_WINDS"},"data":[0,0,0,0,0,0,0,0,0,0,0,0,0,0,0,0,0,0,0,0,0,0,0,0,0,0,0,0,0,0,0,0,0,0,0,0,0,0,0,0,0,0,0,0,0,0,0,0,0,0,0,0,0,0,0,0,0,0,-2.7911,-2.7912,0,-2.795,-2.795,-2.7951,-2.7876,-2.7873,-2.7871,-2.7868,-2.7911,-2.7914,-2.7917,0,0,0,0,0,0,0,0,0,0,0,0,0,-2.7774,-2.7777,-2.7911,-2.7912,-2.7912,-2.795,-2.795,-2.7951,-2.7876,-2.7873,-2.787,-2.7867,-2.791,-2.7914,-2.7918,0,0,0,0,0,0,0,0,0,0,0,0,0,-2.7825,-2.7778,-2.7911,-2.7879,-2.7877,-2.795,-2.795,-2.7951,-2.7877,-2.7873,-2.7869,-2.7866,-2.7908,-2.7913,-2.7918,-2.8025,0,0,-2.7934,-2.7936,0,0,0,0,0,0,0,0,-2.7822,-2.783,-2.7884,-2.7882,-2.7879,-2.7904,-2.7917,-2.7976,-2.7878,-2.7877,-2.7868,-2.7864,-2.7912,-2.7916,-2.7932,-2.8027,-2.8028,-2.7935,-2.7938,-2.794,-2.7941,0,0,0,0,0,0,0,-2.7819,-2.7828,-2.7927,-2.7884,-2.7882,-2.7863,-2.7867,-2.7928,-2.7915,-2.7877,-2.7871,-2.7877,-2.791,-2.7927,-2.7932,-2.8029,-2.7934,-2.7939,-2.7942,-2.7944,-2.8211,-2.8215,0,0,0,0,0,0,-2.7819,-2.7826,-2.7925,-2.7928,-2.7841,-2.7869,-2.7873,-2.79,-2.7914,-2.7912,-2.788,-2.7873,-2.792,-2.7926,-2.7933,-2.8058,-2.794,-2.7945,-2.7948,-2.8207,-2.8212,-2.8216,0,0,0,0,0,0,-2.7816,-2.7829,-2.7924,-2.7875,-2.7886,-2.7875,-2.7907,-2.7903,-2.792,-2.7916,-2.7914,-2.79,-2.7917,-2.7926,-2.8002,-2.8059,-2.7947,-2.7952,-2.8203,-2.8209,-2.8214,-2.831,0,0,0,0,0,0,-2.7813,-2.7828,-2.7869,-2.7877,-2.7889,-2.7992,-2.791,-2.7906,-2.7929,-2.792,-2.7934,-2.7933,-2.7915,-2.7995,-2.8007,-2.8064,-2.7956,-2.8197,-2.8205,-2.8212,-2.8302,-2.8318,-2.8333,0,0,0,0,0,-2.7808,-2.7895,-2.7871,-2.7883,-2.7939,-2.7995,-2.8002,-2.7979,-2.7933,-2.7974,-2.7971,-2.7933,-2.805,-2.8003,-2.8016,-2.8076,-2.8194,-2.8203,-2.8212,-2.8295,-2.8315,-2.8332,0,0,0,0,0,0,-2.7895,-2.7895,-2.7869,-2.7961,-2.7978,-2.7983,-2.8033,-2.8001,-2.8033,-2.8024,-2.7994,-2.7998,-2.808,-2.8085,-2.8033,-2.8178,-2.8114,-2.8126,-2.8173,-2.8192,-2.8207,-2.8205,-2.796,0,0,0,0,0,-2.7925,-2.797,-2.7968,-2.8049,-2.8059,-2.8045,-2.8068,-2.8048,-2.8066,-2.8073,-2.8076,-2.8095,-2.8136,-2.8164,-2.8201,-2.8301,-2.8303,-2.8348,-2.8364,-2.8376,-2.8388,-2.844,-2.846,-2.8246,-2.8246,-2.8246,0,0,-2.7987,-2.7993,-2.8024,-2.8067,-2.8078,-2.8126,-2.8052,-2.8106,-2.8141,-2.8082,-2.8154,-2.8156,-2.8175,-2.8263,-2.8302,-2.827,-2.8447,-2.8388,-2.8398,-2.8403,-2.8452,-2.8472,-2.849,-2.8252,-2.8251,-2.825,0,0,-2.8126,-2.8134,-2.8202,-2.8214,-2.8232,-2.8221,-2.8237,-2.8246,-2.8245,-2.8316,-2.8272,-2.8313,-2.8385,-2.84,-2.8417,-2.8557,-2.8523,-2.857,-2.8653,-2.8704,-2.8721,-2.8736,-2.8786,-2.8805,-2.8581,-2.8582,-2.8582,0,-2.8202,-2.8271,-2.8242,-2.8298,-2.8319,-2.8265,-2.8334,-2.8347,-2.8377,-2.8392,-2.8355,-2.8442,-2.8451,-2.8541,-2.8575,-2.8591,-2.8608,-2.857,-2.8721,-2.8735,-2.8749,-2.8797,-2.8816,-2.8587,-2.8587,-2.8586,-2.8585,0,-2.8364,-2.8413,-2.8466,-2.8494,-2.8519,-2.8582,-2.8562,-2.8592,-2.8568,-2.8562,-2.8634,-2.8642,-2.868,-2.8699,-2.8678,-2.8787,-2.8766,-2.8725,-2.8661,-2.8775,-2.882,-2.8838,-2.8595,-2.8593,-2.8592,-2.859,0,0,-2.8562,-2.857,-2.859,-2.8602,-2.8615,-2.8653,-2.8712,-2.8748,-2.8774,-2.8795,-2.8844,-2.8904,-2.8866,-2.8885,-2.8865,-2.8909,-2.902,-2.8863,-2.8863,-2.8893,-2.914,-2.9172,-2.9194,-2.8996,-2.9,-2.9002,-2.9139,0,-2.8699,-2.8801,-2.8775,-2.8877,-2.8921,-2.8869,-2.8921,-2.8935,-2.8929,-2.8966,-2.896,-2.9003,-2.8949,-2.896,-2.9002,-2.8998,-2.907,-2.8988,-2.9043,-2.9045,-2.9042,-2.9217,-2.9251,-2.938,-2.9156,-2.9159,-2.9161,0,-2.8875,-2.8901,-2.9007,-2.9011,-2.9029,-2.9076,-2.9105,-2.9141,-2.9155,-2.9148,-2.9168,-2.9138,-2.9196,-2.9129,-2.9209,-2.9154,-2.9174,-2.9175,-2.918,-2.9186,-2.9112,-2.9229,-2.942,-2.944,-2.9188,-2.9186,-2.9184,0,-2.901,-2.9071,-2.9142,-2.9153,-2.916,-2.9194,-2.9199,-2.9209,-2.9232,-2.9257,-2.9271,-2.9304,-2.9322,-2.9348,-2.9327,-2.928,-2.941,-2.9342,-2.9407,-2.9407,-2.9439,-2.9437,-2.9637,-2.9449,-2.9449,-2.9449,-2.9448,0,-2.9167,-2.9234,-2.9202,-2.9246,-2.9319,-2.9287,-2.9361,-2.9359,-2.9368,-2.9411,-2.9367,-2.9408,-2.9377,-2.9416,-2.9399,-2.9468,-2.9476,-2.9472,-2.9468,-2.9477,-2.9478,-2.9492,-2.9483,-2.9454,-2.9453,-2.9452,-2.9451,0,-2.9332,-2.9313,-2.9387,-2.9386,-2.9387,-2.9441,-2.9441,-2.9481,-2.9471,-2.9525,-2.9536,-2.9521,-2.9563,-2.9544,-2.9589,-2.9578,-2.9666,-2.9649,-2.9662,-2.9658,-2.9724,-2.9718,-2.9941,-2.9969,-2.9762,-2.9764,-2.9766,0,-2.9435,-2.9485,-2.9489,-2.9513,-2.952,-2.9561,-2.9583,-2.9553,-2.9578,-2.9596,-2.9634,-2.9672,-2.9702,-2.9772,-2.9765,-2.9798,-2.9782,-2.9858,-2.9787,-2.9795,-2.9785,-2.9782,-2.9787,-2.9873,-2.9875,-2.9877,-2.9879,0,-2.962,-2.9607,-2.964,-2.9669,-2.9696,-2.9718,-2.9737,-2.9759,-2.9729,-2.9759,-2.9801,-2.9824,-2.9868,-2.9907,-2.9936,-2.994,-2.9906,-2.9901,-2.9918,-2.9929,-2.9935,-2.9933,-2.9702,-2.9896,-2.9895,-2.9893,-2.9892,-2.9892,-2.9757,-2.9799,-2.9807,-2.9845,-2.9855,-2.9872,-2.991,-2.9903,-2.9937,-2.9971,-2.995,-3.0,-3.001,-3.0045,-3.0054,-3.0092,-3.0063,-3.0087,-3.0094,-3.01,-3.011,-2.9927,-3.0097,-3.0097,-3.0096,-3.0096,-3.0095,0,-2.9941,-2.9943,-2.9978,-3.0003,-3.0033,-2.9994,-3.0012,-3.0039,-3.0083,-3.0095,-3.0124,-3.0172,-3.0208,-3.0203,-3.0236,-3.0267,-3.0252,-3.0277,-3.0275,-3.0277,-3.0134,-3.0116,-3.0289,-3.0289,-3.0289,-3.0289,-3.0289,-3.0289,-3.004,-3.0108,-3.0096,-3.0168,-3.0169,-3.0216,-3.0229,-3.0245,-3.0254,-3.0309,-3.0339,-3.0334,-3.0339,-3.0372,-3.0403,-3.0401,-3.0415,-3.0447,-3.0439,-3.0306,-3.0287,-3.0269,-3.0252,-3.045,-3.045,-3.0578,-3.0579,-3.058]},{"header":{"parameterUnit":"m.s-1","parameterCategory":1,"la1":30.2991,"la2":30.254,"lo1":-89.0895,"lo2":-89.0444,"dy":0.0017,"dx":0.0017,"nx":28,"ny":28,"refTime":"2025-12-10T03:00:00:Z","depth":0,"parameterNumber":3,"parameterNumberName":"V-component_of_WINDS"},"data":[0,0,0,0,0,0,0,0,0,0,0,0,0,0,0,0,0,0,0,0,0,0,0,0,0,0,0,0,0,0,0,0,0,0,0,0,0,0,0,0,0,0,0,0,0,0,0,0,0,0,0,0,0,0,0,0,0,0,-3.7731,-3.7732,0,-3.7809,-3.781,-3.7811,-3.7766,-3.7764,-3.7762,-3.7759,-3.7839,-3.7843,-3.7847,0,0,0,0,0,0,0,0,0,0,0,0,0,-3.7542,-3.7545,-3.7731,-3.7732,-3.7733,-3.7809,-3.781,-3.7811,-3.7766,-3.7764,-3.7761,-3.7759,-3.7838,-3.7843,-3.7848,0,0,0,0,0,0,0,0,0,0,0,0,0,-3.7622,-3.7546,-3.7731,-3.772,-3.772,-3.7809,-3.781,-3.7811,-3.7767,-3.7764,-3.776,-3.7757,-3.7836,-3.7842,-3.7848,-3.7953,0,0,-3.7867,-3.787,0,0,0,0,0,0,0,0,-3.7618,-3.7629,-3.7721,-3.7721,-3.7721,-3.7774,-3.7772,-3.7859,-3.7768,-3.7749,-3.7759,-3.7756,-3.782,-3.7828,-3.7849,-3.7957,-3.796,-3.7868,-3.7872,-3.7874,-3.7876,0,0,0,0,0,0,0,-3.7612,-3.7626,-3.7762,-3.7722,-3.7722,-3.771,-3.7718,-3.7789,-3.7802,-3.775,-3.7747,-3.7757,-3.782,-3.7844,-3.7851,-3.7961,-3.7868,-3.7873,-3.7877,-3.788,-3.8156,-3.8159,0,0,0,0,0,0,-3.7607,-3.7621,-3.7759,-3.7764,-3.766,-3.7716,-3.7725,-3.7761,-3.7801,-3.7804,-3.776,-3.7755,-3.7834,-3.7844,-3.7854,-3.7978,-3.7874,-3.788,-3.7884,-3.8152,-3.8157,-3.8161,0,0,0,0,0,0,-3.7604,-3.762,-3.7756,-3.7692,-3.7708,-3.7723,-3.7763,-3.7764,-3.7788,-3.7808,-3.781,-3.7782,-3.7832,-3.7845,-3.7928,-3.798,-3.7883,-3.7889,-3.8148,-3.8154,-3.8159,-3.8228,0,0,0,0,0,0,-3.7598,-3.7619,-3.766,-3.7693,-3.7712,-3.7831,-3.7766,-3.7768,-3.7799,-3.7793,-3.783,-3.7833,-3.7831,-3.7919,-3.7934,-3.7987,-3.7894,-3.8144,-3.8151,-3.8157,-3.8221,-3.8235,-3.8247,0,0,0,0,0,-3.7592,-3.7676,-3.7662,-3.7679,-3.7763,-3.7834,-3.7844,-3.784,-3.7803,-3.7843,-3.7856,-3.7831,-3.7972,-3.7928,-3.7945,-3.8,-3.814,-3.8149,-3.8157,-3.8215,-3.8232,-3.8247,0,0,0,0,0,0,-3.7649,-3.7681,-3.7665,-3.7763,-3.7796,-3.7826,-3.7877,-3.7859,-3.7903,-3.7896,-3.7888,-3.7897,-3.7984,-3.8,-3.7951,-3.8102,-3.805,-3.8062,-3.8089,-3.8105,-3.8118,-3.8113,-3.7899,0,0,0,0,0,-3.7673,-3.7728,-3.7752,-3.7836,-3.7853,-3.7862,-3.7893,-3.7887,-3.7921,-3.7934,-3.7954,-3.7987,-3.8038,-3.8073,-3.8121,-3.8223,-3.823,-3.8269,-3.8282,-3.8292,-3.8303,-3.8357,-3.8374,-3.8187,-3.8187,-3.8187,0,0,-3.7723,-3.7747,-3.7782,-3.7848,-3.7873,-3.793,-3.7875,-3.7937,-3.7979,-3.7944,-3.8024,-3.8039,-3.8075,-3.8168,-3.821,-3.8184,-3.8356,-3.8302,-3.8311,-3.8316,-3.8367,-3.8385,-3.84,-3.8193,-3.8192,-3.8191,0,0,-3.7843,-3.7867,-3.7939,-3.7965,-3.8003,-3.8008,-3.8025,-3.8058,-3.8066,-3.8146,-3.8121,-3.817,-3.8259,-3.8286,-3.8311,-3.8439,-3.8418,-3.8455,-3.8523,-3.8576,-3.859,-3.8604,-3.8649,-3.8666,-3.8465,-3.8466,-3.8466,0,-3.7901,-3.7986,-3.7979,-3.8043,-3.8073,-3.8043,-3.8115,-3.814,-3.8192,-3.8213,-3.8183,-3.8293,-3.8316,-3.8414,-3.8445,-3.8467,-3.8486,-3.8452,-3.8589,-3.8602,-3.8614,-3.8657,-3.8675,-3.847,-3.8469,-3.8469,-3.8469,0,-3.8055,-3.8114,-3.8167,-3.8218,-3.8253,-3.8321,-3.8324,-3.836,-3.835,-3.8358,-3.8439,-3.8465,-3.8517,-3.854,-3.8531,-3.8637,-3.8619,-3.859,-3.8537,-3.8636,-3.8677,-3.8693,-3.8476,-3.8474,-3.8473,-3.8472,0,0,-3.8215,-3.826,-3.828,-3.8302,-3.834,-3.8386,-3.8451,-3.8503,-3.8534,-3.857,-3.8625,-3.87,-3.8672,-3.87,-3.8694,-3.874,-3.8839,-3.8704,-3.8705,-3.8729,-3.8956,-3.8979,-3.8999,-3.8825,-3.8828,-3.883,-3.8953,0,-3.8338,-3.8454,-3.8449,-3.8557,-3.8611,-3.8582,-3.864,-3.8669,-3.8678,-3.8724,-3.8733,-3.8786,-3.8745,-3.8762,-3.8806,-3.8818,-3.8885,-3.8809,-3.8876,-3.8878,-3.8868,-3.902,-3.9045,-3.916,-3.8969,-3.8972,-3.8974,0,-3.8498,-3.8539,-3.8653,-3.8682,-3.8704,-3.8756,-3.8802,-3.8847,-3.8879,-3.8882,-3.8913,-3.8899,-3.8964,-3.8909,-3.8999,-3.8947,-3.8974,-3.8983,-3.8987,-3.8994,-3.8933,-3.9031,-3.9196,-3.9214,-3.8999,-3.8997,-3.8995,0,-3.8604,-3.8688,-3.8766,-3.8786,-3.8822,-3.8859,-3.8876,-3.8904,-3.8935,-3.8975,-3.8994,-3.9041,-3.9067,-3.9103,-3.9101,-3.9061,-3.9192,-3.9137,-3.9196,-3.9196,-3.9226,-3.9225,-3.9398,-3.9242,-3.9242,-3.9242,-3.9241,0,-3.8742,-3.8813,-3.8814,-3.8863,-3.894,-3.8933,-3.901,-3.9022,-3.9048,-3.9098,-3.9075,-3.9122,-3.9116,-3.9163,-3.9162,-3.9236,-3.9248,-3.9252,-3.9251,-3.9254,-3.9254,-3.9272,-3.9265,-3.9246,-3.9245,-3.9244,-3.9243,0,-3.8875,-3.8878,-3.8962,-3.8989,-3.8997,-3.9053,-3.9076,-3.9121,-3.9126,-3.919,-3.9204,-3.9213,-3.9267,-3.9268,-3.933,-3.9329,-3.942,-3.9409,-3.9409,-3.9408,-3.9467,-3.9461,-3.9659,-3.9685,-3.9511,-3.9513,-3.9514,0,-3.8963,-3.9017,-3.9049,-3.9081,-3.91,-3.9151,-3.9182,-3.9176,-3.9209,-3.9248,-3.9289,-3.934,-3.9382,-3.9469,-3.9481,-3.9527,-3.9518,-3.9584,-3.9525,-3.9527,-3.9519,-3.9517,-3.9522,-3.9596,-3.9598,-3.96,-3.9601,0,-3.912,-3.9119,-3.9165,-3.9211,-3.9248,-3.9284,-3.9317,-3.9344,-3.9341,-3.9379,-3.9434,-3.9466,-3.9529,-3.958,-3.9625,-3.9641,-3.9621,-3.9619,-3.9635,-3.964,-3.9638,-3.964,-3.9441,-3.9615,-3.9613,-3.9612,-3.9612,-3.9611,-3.9234,-3.928,-3.9309,-3.936,-3.9384,-3.9415,-3.9459,-3.947,-3.9515,-3.9566,-3.9559,-3.962,-3.9649,-3.9707,-3.9727,-3.9774,-3.9751,-3.9774,-3.978,-3.9786,-3.9793,-3.9629,-3.9782,-3.9781,-3.9781,-3.9781,-3.978,0,-3.939,-3.9407,-3.9454,-3.9501,-3.9541,-3.9517,-3.9552,-3.9587,-3.9641,-3.9669,-3.971,-3.9772,-3.9821,-3.9836,-3.9883,-3.9918,-3.991,-3.9931,-3.9929,-3.9932,-3.9811,-3.9792,-3.9937,-3.9937,-3.9937,-3.9937,-3.9936,-3.9936,-3.9476,-3.9552,-3.9554,-3.9641,-3.9657,-3.9717,-3.9739,-3.9767,-3.979,-3.986,-3.9901,-3.991,-3.9933,-3.9981,-4.0025,-4.0028,-4.0046,-4.0071,-4.007,-3.9957,-3.9941,-3.9926,-3.9909,-4.0075,-4.0075,-4.0188,-4.0189,-4.019]}]]